| time (UTC) | temp C | wind direction | speed KPH | gust KPH | rain 1hr cm | rain 24hr cm | rain mn cm | humidity % | barometer mb |
| 20260905093801 | 28 | 20 | 3.2 | 6.4 | 0.00 | 0.00 | 0.00 | 86 | 1012.9 |
| 20260905093301 | 28 | 23 | 3.2 | 8.0 | 0.00 | 0.00 | 0.00 | 86 | 1013.0 |
| 20260905093055 | 28 | 185 | 3.2 | 11.3 | 0.00 | 0.00 | 0.00 | 85 | 1013.1 |
| 20260905093034 | 28 | 118 | 3.2 | 9.7 | 0.00 | 0.00 | 0.00 | 86 | 1012.9 |
| 20260905092748 | 28 | 83 | 3.2 | 9.7 | 0.00 | 0.00 | 0.00 | 86 | 1012.9 |
| 20260905091801 | 28 | 228 | 3.2 | 9.7 | 0.00 | 0.00 | 0.00 | 86 | 1013.0 |
| 20260905091609 | 28 | 60 | 3.2 | 8.0 | 0.00 | 0.00 | 0.00 | 85 | 1013.2 |
| 20260905091302 | 28 | 358 | 1.6 | 9.7 | 0.00 | 0.00 | 0.00 | 85 | 1012.9 |
| 20260905090802 | 28 | 203 | 4.8 | 6.4 | 0.00 | 0.00 | 0.00 | 85 | 1013.0 |
| 20260905090301 | 28 | 253 | 1.6 | 11.3 | 0.00 | 0.00 | 0.00 | 85 | 1013.1 |
| 20260905085801 | 28 | 187 | 3.2 | 11.3 | 0.00 | 0.00 | 0.00 | 85 | 1013.1 |
| 20260905085305 | 28 | 296 | 1.6 | 6.4 | 0.00 | 0.00 | 0.00 | 85 | 1013.0 |
| 20260905084800 | 28 | 117 | 4.8 | 8.0 | 0.00 | 0.00 | 0.00 | 85 | 1013.1 |
| 20260905084611 | 28 | 106 | 3.2 | 9.7 | 0.00 | 0.00 | 0.00 | 84 | 1013.2 |
| 20260905084525 | 28 | 243 | 3.2 | 8.0 | 0.00 | 0.00 | 0.00 | 85 | 1013.0 |
| 20260905083802 | 28 | 272 | 1.6 | 8.0 | 0.00 | 0.00 | 0.00 | 85 | 1013.0 |
| 20260905083302 | 28 | 341 | 1.6 | 11.3 | 0.00 | 0.00 | 0.00 | 85 | 1013.1 |
| 20260905083101 | 28 | 286 | 1.6 | 11.3 | 0.00 | 0.00 | 0.00 | 84 | 1013.4 |
| 20260905082802 | 28 | 295 | 4.8 | 11.3 | 0.00 | 0.00 | 0.00 | 85 | 1013.2 |
| 20260905082300 | 28 | 301 | 3.2 | 9.7 | 0.00 | 0.00 | 0.00 | 84 | 1013.1 |
| 20260905081801 | 28 | 348 | 3.2 | 9.7 | 0.00 | 0.00 | 0.00 | 84 | 1013.2 |
| 20260905081616 | 28 | 314 | 1.6 | 11.3 | 0.00 | 0.00 | 0.00 | 84 | 1013.4 |
| 20260905081521 | 28 | 272 | 3.2 | 12.9 | 0.00 | 0.00 | 0.00 | 84 | 1013.2 |
| 20260905080801 | 28 | 163 | 4.8 | 12.9 | 0.00 | 0.00 | 0.00 | 84 | 1013.2 |
| 20260905080527 | 28 | 46 | 4.8 | 8.0 | 0.00 | 0.00 | 0.00 | 84 | 1013.1 |
| 20260905080057 | 28 | 333 | 1.6 | 8.0 | 0.00 | 0.00 | 0.00 | 84 | 1013.3 |
| 20260905075801 | 28 | 51 | 1.6 | 9.7 | 0.00 | 0.00 | 0.00 | 84 | 1013.2 |
| 20260905075301 | 28 | 331 | 3.2 | 11.3 | 0.00 | 0.00 | 0.00 | 84 | 1013.2 |
| 20260905074801 | 28 | 272 | 3.2 | 11.3 | 0.00 | 0.00 | 0.00 | 84 | 1013.3 |
| 20260905074603 | 28 | 206 | 3.2 | 11.3 | 0.00 | 0.00 | 0.00 | 83 | 1013.6 |
| 20260905074301 | 28 | 185 | 3.2 | 11.3 | 0.00 | 0.00 | 0.00 | 84 | 1013.3 |
| 20260905074021 | 28 | 195 | 1.6 | 9.7 | 0.00 | 0.00 | 0.00 | 84 | 1013.4 |
| 20260905073425 | 28 | 12 | 3.2 | 9.7 | 0.00 | 0.00 | 0.00 | 83 | 1013.8 |
| 20260905073302 | 28 | 224 | 3.2 | 9.7 | 0.00 | 0.00 | 0.00 | 84 | 1013.5 |
| 20260905072801 | 28 | 176 | 3.2 | 8.0 | 0.00 | 0.00 | 0.00 | 84 | 1013.4 |
| 20260905072301 | 28 | 234 | 3.2 | 8.0 | 0.00 | 0.00 | 0.00 | 84 | 1013.6 |
| 20260905071800 | 28 | 141 | 3.2 | 8.0 | 0.00 | 0.00 | 0.00 | 84 | 1013.8 |
| 20260905071719 | 28 | 269 | 3.2 | 8.0 | 0.00 | 0.00 | 0.00 | 84 | 1013.9 |
| 20260905071303 | 28 | 13 | 1.6 | 8.0 | 0.00 | 0.00 | 0.00 | 84 | 1013.7 |
| 20260905070751 | 28 | 157 | 0.0 | 12.9 | 0.00 | 0.00 | 0.00 | 84 | 1013.8 |
| 20260905070246 | 29 | 53 | 4.8 | 12.9 | 0.00 | 0.00 | 0.00 | 84 | 1013.9 |
| 20260905065745 | 29 | 263 | 3.2 | 9.7 | 0.00 | 0.00 | 0.00 | 84 | 1013.9 |
| 20260905065239 | 29 | 207 | 3.2 | 9.7 | 0.00 | 0.00 | 0.00 | 84 | 1013.7 |
| 20260905064735 | 29 | 234 | 3.2 | 9.7 | 0.00 | 0.00 | 0.00 | 84 | 1013.8 |
| 20260905064603 | 28 | 105 | 3.2 | 8.0 | 0.00 | 0.00 | 0.00 | 83 | 1014.0 |
| 20260905064234 | 29 | 184 | 1.6 | 9.7 | 0.00 | 0.00 | 0.00 | 83 | 1013.7 |
| 20260905063733 | 29 | 199 | 3.2 | 11.3 | 0.00 | 0.00 | 0.00 | 83 | 1013.7 |
| 20260905063229 | 29 | 84 | 3.2 | 11.3 | 0.00 | 0.00 | 0.00 | 83 | 1013.8 |
| 20260905063114 | 28 | 301 | 3.2 | 11.3 | 0.00 | 0.00 | 0.00 | 83 | 1013.9 |
| 20260905062734 | 29 | 155 | 3.2 | 9.7 | 0.00 | 0.00 | 0.00 | 83 | 1013.6 |
| 20260905062234 | 29 | 233 | 3.2 | 14.5 | 0.00 | 0.00 | 0.00 | 83 | 1013.6 |
| 20260905061733 | 29 | 320 | 6.4 | 14.5 | 0.00 | 0.00 | 0.00 | 83 | 1013.7 |
| 20260905061611 | 28 | 37 | 1.6 | 12.9 | 0.00 | 0.00 | 0.00 | 82 | 1013.8 |
| 20260905061451 | 29 | 92 | 6.4 | 12.9 | 0.00 | 0.00 | 0.00 | 82 | 1013.7 |
| 20260905060731 | 29 | 358 | 3.2 | 11.3 | 0.00 | 0.00 | 0.00 | 82 | 1013.8 |
| 20260905060231 | 29 | 169 | 4.8 | 11.3 | 0.00 | 0.00 | 0.00 | 82 | 1013.6 |
| 20260905060053 | 28 | 9 | 4.8 | 11.3 | 0.00 | 0.00 | 0.00 | 81 | 1013.9 |
| 20260905055730 | 29 | 357 | 3.2 | 11.3 | 0.00 | 0.00 | 0.00 | 82 | 1013.6 |
| 20260905055230 | 29 | 327 | 3.2 | 11.3 | 0.00 | 0.00 | 0.00 | 82 | 1013.5 |
| 20260905054728 | 29 | 191 | 3.2 | 11.3 | 0.00 | 0.00 | 0.00 | 82 | 1013.5 |
| 20260905054603 | 28 | 243 | 3.2 | 9.7 | 0.00 | 0.00 | 0.00 | 81 | 1013.7 |
| 20260905054230 | 29 | 184 | 3.2 | 11.3 | 0.00 | 0.00 | 0.00 | 81 | 1013.5 |
| 20260905053730 | 29 | 164 | 3.2 | 9.7 | 0.00 | 0.00 | 0.00 | 81 | 1013.6 |
| 20260905053451 | 29 | 239 | 4.8 | 14.5 | 0.00 | 0.00 | 0.00 | 81 | 1013.6 |
| 20260905053059 | 29 | 181 | 1.6 | 17.7 | 0.00 | 0.00 | 0.00 | 80 | 1013.8 |
| 20260905052712 | 29 | 330 | 4.8 | 14.5 | 0.00 | 0.00 | 0.00 | 81 | 1013.6 |
| 20260905052209 | 29 | 46 | 4.8 | 14.5 | 0.00 | 0.00 | 0.00 | 81 | 1013.7 |
| 20260905051706 | 29 | 165 | 4.8 | 16.1 | 0.00 | 0.00 | 0.00 | 81 | 1013.6 |
| 20260905051556 | 29 | 44 | 4.8 | 14.5 | 0.00 | 0.00 | 0.00 | 80 | 1013.9 |
| 20260905051203 | 29 | 106 | 4.8 | 16.1 | 0.00 | 0.00 | 0.00 | 81 | 1013.7 |
| 20260905050703 | 29 | 307 | 3.2 | 14.5 | 0.00 | 0.00 | 0.00 | 80 | 1013.7 |
| 20260905050148 | 29 | 183 | 6.4 | 16.1 | 0.00 | 0.00 | 0.00 | 80 | 1013.7 |
| 20260905050109 | 29 | 104 | 4.8 | 16.1 | 0.00 | 0.00 | 0.00 | 80 | 1013.9 |
| 20260905045642 | 29 | 73 | 3.2 | 16.1 | 0.00 | 0.00 | 0.00 | 80 | 1013.9 |
| 20260905045138 | 29 | 210 | 3.2 | 12.9 | 0.00 | 0.00 | 0.00 | 80 | 1013.8 |
| 20260905044634 | 30 | 266 | 3.2 | 11.3 | 0.00 | 0.00 | 0.00 | 80 | 1013.8 |
| 20260905044553 | 29 | 104 | 1.6 | 9.7 | 0.00 | 0.00 | 0.00 | 79 | 1013.9 |
| 20260905044357 | 30 | 30 | 4.8 | 8.0 | 0.00 | 0.00 | 0.00 | 79 | 1013.9 |
| 20260905043631 | 30 | 40 | 3.2 | 12.9 | 0.00 | 0.00 | 0.00 | 79 | 1013.9 |
| 20260905043129 | 30 | 230 | 4.8 | 12.9 | 0.00 | 0.00 | 0.00 | 79 | 1014.0 |
| 20260905043118 | 29 | 81 | 3.2 | 12.9 | 0.00 | 0.00 | 0.00 | 78 | 1014.2 |
| 20260905042630 | 30 | 108 | 4.8 | 14.5 | 0.00 | 0.00 | 0.00 | 78 | 1013.7 |
| 20260905042131 | 30 | 326 | 6.4 | 14.5 | 0.00 | 0.00 | 0.00 | 78 | 1013.7 |
| 20260905041629 | 30 | 259 | 4.8 | 12.9 | 0.00 | 0.00 | 0.00 | 78 | 1013.8 |
| 20260905041604 | 30 | 319 | 4.8 | 12.9 | 0.00 | 0.00 | 0.00 | 77 | 1014.1 |
| 20260905041356 | 30 | 301 | 6.4 | 12.9 | 0.00 | 0.00 | 0.00 | 78 | 1013.9 |
| 20260905040858 | 30 | 253 | 4.8 | 12.9 | 0.00 | 0.00 | 0.00 | 78 | 1014.0 |
| 20260905040129 | 30 | 229 | 4.8 | 11.3 | 0.00 | 0.00 | 0.00 | 77 | 1014.0 |
| 20260905040121 | 30 | 333 | 4.8 | 12.9 | 0.00 | 0.00 | 0.00 | 77 | 1014.2 |
| 20260905035629 | 30 | 68 | 3.2 | 11.3 | 0.00 | 0.00 | 0.00 | 77 | 1013.9 |
| 20260905035128 | 30 | 290 | 6.4 | 11.3 | 0.00 | 0.00 | 0.00 | 77 | 1013.8 |
| 20260905034628 | 30 | 222 | 6.4 | 11.3 | 0.00 | 0.00 | 0.00 | 77 | 1013.9 |
| 20260905034600 | 30 | 296 | 6.4 | 11.3 | 0.00 | 0.00 | 0.00 | 76 | 1014.2 |
| 20260905034352 | 30 | 20 | 4.8 | 11.3 | 0.00 | 0.00 | 0.00 | 77 | 1014.1 |
| 20260905033621 | 30 | 200 | 3.2 | 12.9 | 0.00 | 0.00 | 0.00 | 76 | 1014.0 |
| 20260905033117 | 30 | 110 | 4.8 | 12.9 | 0.00 | 0.00 | 0.00 | 76 | 1013.8 |
| 20260905033103 | 30 | 66 | 3.2 | 12.9 | 0.00 | 0.00 | 0.00 | 75 | 1014.0 |
| 20260905032838 | 30 | 231 | 6.4 | 14.5 | 0.00 | 0.00 | 0.00 | 76 | 1013.8 |
| 20260905032108 | 30 | 10 | 6.4 | 14.5 | 0.00 | 0.00 | 0.00 | 75 | 1013.9 |
| 20260905031603 | 30 | 303 | 4.8 | 9.7 | 0.00 | 0.00 | 0.00 | 75 | 1013.9 |
| 20260905031600 | 30 | 260 | 3.2 | 12.9 | 0.00 | 0.00 | 0.00 | 74 | 1014.1 |
| 20260905031103 | 30 | 125 | 3.2 | 12.9 | 0.00 | 0.00 | 0.00 | 74 | 1013.8 |
| 20260905030824 | 30 | 220 | 4.8 | 12.9 | 0.00 | 0.00 | 0.00 | 74 | 1013.7 |
| 20260905030101 | 30 | 197 | 4.8 | 12.9 | 0.00 | 0.00 | 0.00 | 73 | 1013.8 |
| 20260905025603 | 30 | 286 | 4.8 | 12.9 | 0.00 | 0.00 | 0.00 | 73 | 1013.7 |
| 20260905025102 | 30 | 346 | 4.8 | 14.5 | 0.00 | 0.00 | 0.00 | 73 | 1013.7 |
| 20260905024602 | 30 | 356 | 4.8 | 16.1 | 0.00 | 0.00 | 0.00 | 72 | 1013.8 |
| 20260905024334 | 30 | 6 | 6.4 | 14.5 | 0.00 | 0.00 | 0.00 | 72 | 1013.5 |
| 20260905023602 | 31 | 33 | 4.8 | 11.3 | 0.00 | 0.00 | 0.00 | 72 | 1013.5 |
| 20260905023101 | 30 | 231 | 3.2 | 12.9 | 0.00 | 0.00 | 0.00 | 71 | 1013.8 |
| 20260905022600 | 31 | 328 | 3.2 | 16.1 | 0.00 | 0.00 | 0.00 | 71 | 1013.5 |
| 20260905022100 | 31 | 196 | 6.4 | 16.1 | 0.00 | 0.00 | 0.00 | 71 | 1013.3 |
| 20260905021601 | 31 | 345 | 6.4 | 16.1 | 0.00 | 0.00 | 0.00 | 71 | 1013.1 |
| 20260905021552 | 31 | 56 | 6.4 | 16.1 | 0.00 | 0.00 | 0.00 | 70 | 1013.2 |
| 20260905021100 | 31 | 37 | 6.4 | 14.5 | 0.00 | 0.00 | 0.00 | 71 | 1012.9 |
| 20260905020616 | 31 | 345 | 4.8 | 14.5 | 0.00 | 0.00 | 0.00 | 71 | 1012.7 |
| 20260905020104 | 31 | 56 | 3.2 | 14.5 | 0.00 | 0.00 | 0.00 | 70 | 1012.6 |
| 20260905020058 | 31 | 177 | 4.8 | 20.9 | 0.00 | 0.00 | 0.00 | 70 | 1012.8 |
| 20260905015602 | 31 | 117 | 4.8 | 14.5 | 0.00 | 0.00 | 0.00 | 70 | 1012.5 |
| 20260905015102 | 31 | 301 | 6.4 | 17.7 | 0.00 | 0.00 | 0.00 | 69 | 1012.4 |
| 20260905014600 | 31 | 255 | 6.4 | 17.7 | 0.00 | 0.00 | 0.00 | 69 | 1012.4 |
| 20260905014557 | 31 | 271 | 6.4 | 19.3 | 0.00 | 0.00 | 0.00 | 68 | 1012.5 |
| 20260905014323 | 31 | 307 | 8.0 | 14.5 | 0.00 | 0.00 | 0.00 | 68 | 1012.6 |
| 20260905013601 | 32 | 212 | 6.4 | 12.9 | 0.00 | 0.00 | 0.00 | 67 | 1012.6 |
| 20260905013103 | 31 | 209 | 6.4 | 17.7 | 0.00 | 0.00 | 0.00 | 66 | 1012.6 |
| 20260905013101 | 32 | 276 | 6.4 | 19.3 | 0.00 | 0.00 | 0.00 | 66 | 1012.5 |
| 20260905013051 | 32 | 124 | 9.7 | 19.3 | 0.00 | 0.00 | 0.00 | 66 | 1012.2 |
| 20260905012101 | 32 | 134 | 3.2 | 12.9 | 0.00 | 0.00 | 0.00 | 66 | 1012.1 |
| 20260905011600 | 32 | 347 | 6.4 | 17.7 | 0.00 | 0.00 | 0.00 | 65 | 1012.1 |
| 20260905011557 | 32 | 76 | 6.4 | 16.1 | 0.00 | 0.00 | 0.00 | 65 | 1012.3 |
| 20260905011100 | 32 | 206 | 8.0 | 20.9 | 0.00 | 0.00 | 0.00 | 65 | 1012.0 |
| 20260905010603 | 32 | 171 | 11.3 | 20.9 | 0.00 | 0.00 | 0.00 | 65 | 1011.8 |
| 20260905010339 | 32 | 67 | 4.8 | 16.1 | 0.00 | 0.00 | 0.00 | 64 | 1011.7 |
| 20260905010108 | 32 | 273 | 4.8 | 14.5 | 0.00 | 0.00 | 0.00 | 64 | 1011.9 |
| 20260905005615 | 32 | 126 | 6.4 | 16.1 | 0.00 | 0.00 | 0.00 | 64 | 1011.6 |
| 20260905005103 | 32 | 61 | 4.8 | 14.5 | 0.00 | 0.00 | 0.00 | 63 | 1011.8 |
| 20260905004613 | 32 | 291 | 4.8 | 16.1 | 0.00 | 0.00 | 0.00 | 63 | 1012.1 |
| 20260905004602 | 33 | 205 | 6.4 | 17.7 | 0.00 | 0.00 | 0.00 | 63 | 1011.8 |
| 20260905004101 | 33 | 226 | 9.7 | 17.7 | 0.00 | 0.00 | 0.00 | 62 | 1011.8 |
| 20260905003826 | 33 | 179 | 8.0 | 17.7 | 0.00 | 0.00 | 0.00 | 62 | 1011.7 |
| 20260905003102 | 33 | 70 | 8.0 | 17.7 | 0.00 | 0.00 | 0.00 | 62 | 1011.6 |
| 20260905002602 | 33 | 181 | 6.4 | 14.5 | 0.00 | 0.00 | 0.00 | 60 | 1011.6 |
| 20260905002102 | 33 | 30 | 6.4 | 17.7 | 0.00 | 0.00 | 0.00 | 60 | 1011.6 |
| 20260905001825 | 34 | 270 | 6.4 | 17.7 | 0.00 | 0.00 | 0.00 | 59 | 1011.6 |
| 20260905001558 | 33 | 272 | 8.0 | 24.1 | 0.00 | 0.00 | 0.00 | 59 | 1011.8 |
| 20260905001336 | 34 | 287 | 8.0 | 22.5 | 0.00 | 0.00 | 0.00 | 58 | 1011.3 |
| 20260905001320 | 34 | 167 | 9.7 | 22.5 | 0.00 | 0.00 | 0.00 | 58 | 1011.7 |
| 20260905000550 | 35 | 217 | 8.0 | 14.5 | 0.00 | 0.00 | 0.00 | 58 | 1011.3 |
| 20260905000125 | 34 | 281 | 6.4 | 17.7 | 0.00 | 0.00 | 0.00 | 57 | 1011.6 |
| 20260904235827 | 35 | 41 | 6.4 | 19.3 | 0.00 | 0.00 | 0.00 | 57 | 1011.2 |
| 20260904235102 | 35 | 268 | 8.0 | 19.3 | 0.00 | 0.00 | 0.00 | 57 | 1011.1 |
| 20260904234601 | 35 | 162 | 8.0 | 19.3 | 0.00 | 0.00 | 0.00 | 55 | 1011.1 |
| 20260904234101 | 35 | 203 | 8.0 | 16.1 | 0.00 | 0.00 | 0.00 | 54 | 1011.0 |
| 20260904233602 | 35 | 49 | 9.7 | 19.3 | 0.00 | 0.00 | 0.00 | 53 | 1010.9 |
| 20260904233108 | 35 | 212 | 9.7 | 22.5 | 0.00 | 0.00 | 0.00 | 52 | 1011.2 |
| 20260904233101 | 35 | 64 | 9.7 | 24.1 | 0.00 | 0.00 | 0.00 | 52 | 1010.9 |
| 20260904232601 | 36 | 172 | 8.0 | 24.1 | 0.00 | 0.00 | 0.00 | 52 | 1010.8 |
| 20260904232101 | 36 | 193 | 8.0 | 20.9 | 0.00 | 0.00 | 0.00 | 51 | 1010.7 |
| 20260904232057 | 36 | 162 | 9.7 | 20.9 | 0.00 | 0.00 | 0.00 | 50 | 1010.8 |
| 20260904231600 | 36 | 218 | 8.0 | 19.3 | 0.00 | 0.00 | 0.00 | 49 | 1011.1 |
| 20260904231100 | 37 | 278 | 6.4 | 12.9 | 0.00 | 0.00 | 0.00 | 50 | 1010.7 |
| 20260904230827 | 36 | 337 | 6.4 | 17.7 | 0.00 | 0.00 | 0.00 | 50 | 1010.7 |
| 20260904230056 | 36 | 226 | 8.0 | 19.3 | 0.00 | 0.00 | 0.00 | 49 | 1011.1 |
| 20260904225601 | 37 | 192 | 8.0 | 16.1 | 0.00 | 0.00 | 0.00 | 49 | 1010.8 |
| 20260904225101 | 36 | 109 | 9.7 | 16.1 | 0.00 | 0.00 | 0.00 | 50 | 1010.8 |
| 20260904224604 | 37 | 354 | 6.4 | 16.1 | 0.00 | 0.00 | 0.00 | 48 | 1011.0 |
| 20260904224601 | 37 | 279 | 6.4 | 14.5 | 0.00 | 0.00 | 0.00 | 49 | 1010.8 |
| 20260904224327 | 37 | 261 | 8.0 | 19.3 | 0.00 | 0.00 | 0.00 | 49 | 1010.7 |
| 20260904223615 | 37 | 358 | 6.4 | 20.9 | 0.00 | 0.00 | 0.00 | 50 | 1010.7 |
| 20260904223338 | 36 | 323 | 8.0 | 20.9 | 0.00 | 0.00 | 0.00 | 49 | 1010.6 |
| 20260904223106 | 36 | 44 | 6.4 | 20.9 | 0.00 | 0.00 | 0.00 | 49 | 1010.9 |
| 20260904222602 | 37 | 15 | 6.4 | 19.3 | 0.00 | 0.00 | 0.00 | 49 | 1010.6 |
| 20260904222102 | 37 | 272 | 9.7 | 20.9 | 0.00 | 0.00 | 0.00 | 49 | 1010.7 |
| 20260904221602 | 37 | 227 | 8.0 | 20.9 | 0.00 | 0.00 | 0.00 | 48 | 1010.7 |
| 20260904221555 | 37 | 143 | 8.0 | 22.5 | 0.00 | 0.00 | 0.00 | 48 | 1010.9 |
| 20260904221057 | 37 | 225 | 11.3 | 22.5 | 0.00 | 0.00 | 0.00 | 47 | 1010.6 |
| 20260904220553 | 38 | 139 | 9.7 | 22.5 | 0.00 | 0.00 | 0.00 | 45 | 1010.6 |
| 20260904220116 | 38 | 75 | 3.2 | 12.9 | 0.00 | 0.00 | 0.00 | 39 | 1010.8 |
| 20260904220053 | 38 | 103 | 4.8 | 12.9 | 0.00 | 0.00 | 0.00 | 41 | 1010.5 |
| 20260904215547 | 38 | 258 | 6.4 | 19.3 | 0.00 | 0.00 | 0.00 | 39 | 1010.4 |
| 20260904215044 | 38 | 220 | 4.8 | 19.3 | 0.00 | 0.00 | 0.00 | 40 | 1010.5 |
| 20260904214809 | 38 | 63 | 3.2 | 16.1 | 0.00 | 0.00 | 0.00 | 38 | 1010.5 |
| 20260904214600 | 38 | 7 | 3.2 | 14.5 | 0.00 | 0.00 | 0.00 | 38 | 1010.8 |
| 20260904214035 | 38 | 343 | 6.4 | 17.7 | 0.00 | 0.00 | 0.00 | 38 | 1010.6 |
| 20260904213529 | 38 | 150 | 4.8 | 17.7 | 0.00 | 0.00 | 0.00 | 39 | 1010.5 |
| 20260904213055 | 38 | 343 | 3.2 | 14.5 | 0.00 | 0.00 | 0.00 | 38 | 1010.8 |
| 20260904213029 | 38 | 22 | 3.2 | 14.5 | 0.00 | 0.00 | 0.00 | 38 | 1010.5 |
| 20260904212528 | 38 | 247 | 9.7 | 14.5 | 0.00 | 0.00 | 0.00 | 37 | 1010.7 |
| 20260904212029 | 38 | 176 | 4.8 | 11.3 | 0.00 | 0.00 | 0.00 | 38 | 1010.7 |
| 20260904211608 | 38 | 243 | 4.8 | 12.9 | 0.00 | 0.00 | 0.00 | 38 | 1011.1 |
| 20260904211527 | 38 | 338 | 4.8 | 11.3 | 0.00 | 0.00 | 0.00 | 38 | 1010.7 |
| 20260904211022 | 38 | 211 | 6.4 | 12.9 | 0.00 | 0.00 | 0.00 | 38 | 1010.7 |
| 20260904210518 | 38 | 212 | 4.8 | 12.9 | 0.00 | 0.00 | 0.00 | 40 | 1010.7 |
| 20260904210104 | 38 | 228 | 3.2 | 16.1 | 0.00 | 0.00 | 0.00 | 40 | 1011.1 |
| 20260904210017 | 38 | 33 | 4.8 | 17.7 | 0.00 | 0.00 | 0.00 | 41 | 1010.9 |
| 20260904205517 | 38 | 176 | 9.7 | 17.7 | 0.00 | 0.00 | 0.00 | 42 | 1010.8 |
| 20260904205012 | 38 | 340 | 8.0 | 14.5 | 0.00 | 0.00 | 0.00 | 42 | 1011.0 |
| 20260904204555 | 37 | 108 | 9.7 | 17.7 | 0.00 | 0.00 | 0.00 | 42 | 1011.1 |
| 20260904204508 | 38 | 103 | 9.7 | 14.5 | 0.00 | 0.00 | 0.00 | 43 | 1010.9 |
| 20260904204005 | 38 | 241 | 8.0 | 12.9 | 0.00 | 0.00 | 0.00 | 44 | 1010.9 |
| 20260904203949 | 38 | 11 | 6.4 | 16.1 | 0.00 | 0.00 | 0.00 | 43 | 1010.9 |
| 20260904203055 | 38 | 176 | 9.7 | 16.1 | 0.00 | 0.00 | 0.00 | 43 | 1011.2 |
| 20260904203002 | 38 | 252 | 9.7 | 16.1 | 0.00 | 0.00 | 0.00 | 43 | 1010.9 |
| 20260904202502 | 38 | 338 | 6.4 | 12.9 | 0.00 | 0.00 | 0.00 | 44 | 1011.0 |
| 20260904202002 | 39 | 128 | 6.4 | 12.9 | 0.00 | 0.00 | 0.00 | 43 | 1011.1 |
| 20260904201551 | 38 | 188 | 3.2 | 12.9 | 0.00 | 0.00 | 0.00 | 45 | 1011.4 |
| 20260904201502 | 38 | 211 | 3.2 | 12.9 | 0.00 | 0.00 | 0.00 | 45 | 1011.0 |
| 20260904201002 | 38 | 87 | 1.6 | 16.1 | 0.00 | 0.00 | 0.00 | 44 | 1011.0 |
| 20260904200502 | 38 | 334 | 6.4 | 17.7 | 0.00 | 0.00 | 0.00 | 45 | 1011.2 |
| 20260904200003 | 38 | 22 | 11.3 | 17.7 | 0.00 | 0.00 | 0.00 | 44 | 1011.2 |
| 20260904195503 | 39 | 193 | 6.4 | 11.3 | 0.00 | 0.00 | 0.00 | 43 | 1011.1 |
| 20260904195002 | 39 | 315 | 4.8 | 14.5 | 0.00 | 0.00 | 0.00 | 44 | 1011.3 |
| 20260904194603 | 38 | 41 | 3.2 | 14.5 | 0.00 | 0.00 | 0.00 | 44 | 1011.6 |
| 20260904194502 | 39 | 352 | 4.8 | 14.5 | 0.00 | 0.00 | 0.00 | 45 | 1011.2 |
| 20260904194000 | 38 | 271 | 4.8 | 14.5 | 0.00 | 0.00 | 0.00 | 43 | 1011.4 |
| 20260904193726 | 38 | 233 | 6.4 | 14.5 | 0.00 | 0.00 | 0.00 | 44 | 1011.7 |
| 20260904193110 | 38 | 258 | 3.2 | 11.3 | 0.00 | 0.00 | 0.00 | 44 | 1011.8 |
| 20260904193001 | 38 | 266 | 3.2 | 12.9 | 0.00 | 0.00 | 0.00 | 44 | 1011.6 |
| 20260904192501 | 38 | 70 | 6.4 | 12.9 | 0.00 | 0.00 | 0.00 | 43 | 1011.6 |
| 20260904192001 | 39 | 44 | 6.4 | 12.9 | 0.00 | 0.00 | 0.00 | 43 | 1011.7 |
| 20260904191554 | 39 | 25 | 3.2 | 16.1 | 0.00 | 0.00 | 0.00 | 44 | 1011.9 |
| 20260904191500 | 39 | 191 | 4.8 | 17.7 | 0.00 | 0.00 | 0.00 | 44 | 1011.7 |
| 20260904191001 | 38 | 275 | 8.0 | 17.7 | 0.00 | 0.00 | 0.00 | 44 | 1011.8 |
| 20260904190500 | 39 | 243 | 3.2 | 11.3 | 0.00 | 0.00 | 0.00 | 44 | 1011.9 |
| 20260904190004 | 38 | 67 | 4.8 | 14.5 | 0.00 | 0.00 | 0.00 | 44 | 1012.1 |
| 20260904185502 | 38 | 136 | 6.4 | 14.5 | 0.00 | 0.00 | 0.00 | 45 | 1012.2 |
| 20260904185003 | 38 | 8 | 3.2 | 16.1 | 0.00 | 0.00 | 0.00 | 45 | 1012.1 |
| 20260904184559 | 37 | 190 | 6.4 | 16.1 | 0.00 | 0.00 | 0.00 | 44 | 1012.5 |
| 20260904184502 | 38 | 327 | 6.4 | 16.1 | 0.00 | 0.00 | 0.00 | 46 | 1012.2 |
| 20260904184226 | 38 | 333 | 6.4 | 11.3 | 0.00 | 0.00 | 0.00 | 46 | 1012.4 |
| 20260904183502 | 38 | 317 | 4.8 | 24.1 | 0.00 | 0.00 | 0.00 | 44 | 1012.5 |
| 20260904183120 | 37 | 288 | 6.4 | 24.1 | 0.00 | 0.00 | 0.00 | 45 | 1012.8 |
| 20260904183002 | 38 | 326 | 6.4 | 24.1 | 0.00 | 0.00 | 0.00 | 45 | 1012.6 |
| 20260904182503 | 38 | 285 | 3.2 | 14.5 | 0.00 | 0.00 | 0.00 | 45 | 1012.7 |
| 20260904182003 | 37 | 191 | 6.4 | 14.5 | 0.00 | 0.00 | 0.00 | 46 | 1012.7 |
| 20260904181603 | 37 | 0 | 4.8 | 19.3 | 0.00 | 0.00 | 0.00 | 49 | 1013.0 |
| 20260904181502 | 37 | 53 | 6.4 | 16.1 | 0.00 | 0.00 | 0.00 | 47 | 1012.9 |
| 20260904181001 | 37 | 235 | 6.4 | 16.1 | 0.00 | 0.00 | 0.00 | 45 | 1013.0 |
| 20260904180731 | 37 | 264 | 4.8 | 17.7 | 0.00 | 0.00 | 0.00 | 47 | 1013.0 |
| 20260904180119 | 37 | 112 | 6.4 | 17.7 | 0.00 | 0.00 | 0.00 | 46 | 1013.2 |
| 20260904180001 | 37 | 126 | 6.4 | 17.7 | 0.00 | 0.00 | 0.00 | 47 | 1013.0 |
| 20260904175502 | 37 | 34 | 3.2 | 12.9 | 0.00 | 0.00 | 0.00 | 50 | 1013.1 |
| 20260904175001 | 36 | 307 | 8.0 | 12.9 | 0.00 | 0.00 | 0.00 | 49 | 1013.3 |
| 20260904174609 | 36 | 33 | 4.8 | 16.1 | 0.00 | 0.00 | 0.00 | 49 | 1013.6 |
| 20260904174501 | 36 | 200 | 6.4 | 16.1 | 0.00 | 0.00 | 0.00 | 49 | 1013.4 |
| 20260904174000 | 36 | 221 | 8.0 | 16.1 | 0.00 | 0.00 | 0.00 | 49 | 1013.4 |
| 20260904173501 | 36 | 44 | 9.7 | 14.5 | 0.00 | 0.00 | 0.00 | 49 | 1013.4 |
| 20260904173102 | 36 | 316 | 4.8 | 17.7 | 0.00 | 0.00 | 0.00 | 50 | 1013.7 |
| 20260904173003 | 36 | 40 | 3.2 | 17.7 | 0.00 | 0.00 | 0.00 | 50 | 1013.6 |
| 20260904172738 | 36 | 302 | 8.0 | 17.7 | 0.00 | 0.00 | 0.00 | 52 | 1013.5 |
| 20260904172002 | 35 | 228 | 6.4 | 14.5 | 0.00 | 0.00 | 0.00 | 52 | 1013.6 |
| 20260904171556 | 35 | 321 | 4.8 | 12.9 | 0.00 | 0.00 | 0.00 | 52 | 1013.9 |
| 20260904171502 | 36 | 15 | 4.8 | 12.9 | 0.00 | 0.00 | 0.00 | 53 | 1013.8 |
| 20260904171001 | 35 | 345 | 4.8 | 16.1 | 0.00 | 0.00 | 0.00 | 54 | 1013.8 |
| 20260904170500 | 35 | 209 | 8.0 | 16.1 | 0.00 | 0.00 | 0.00 | 55 | 1013.9 |
| 20260904170058 | 35 | 180 | 4.8 | 16.1 | 0.00 | 0.00 | 0.00 | 55 | 1014.1 |
| 20260904170002 | 35 | 164 | 6.4 | 16.1 | 0.00 | 0.00 | 0.00 | 56 | 1013.9 |
| 20260904165501 | 35 | 295 | 8.0 | 19.3 | 0.00 | 0.00 | 0.00 | 55 | 1014.1 |
| 20260904165001 | 35 | 335 | 6.4 | 19.3 | 0.00 | 0.00 | 0.00 | 56 | 1014.0 |
| 20260904164607 | 34 | 235 | 6.4 | 17.7 | 0.00 | 0.00 | 0.00 | 56 | 1014.1 |
| 20260904164501 | 35 | 25 | 8.0 | 14.5 | 0.00 | 0.00 | 0.00 | 58 | 1014.0 |
| 20260904163959 | 35 | 124 | 6.4 | 20.9 | 0.00 | 0.00 | 0.00 | 58 | 1014.0 |
| 20260904163454 | 34 | 319 | 6.4 | 20.9 | 0.00 | 0.00 | 0.00 | 59 | 1013.9 |
| 20260904163214 | 34 | 292 | 8.0 | 17.7 | 0.00 | 0.00 | 0.00 | 59 | 1014.0 |
| 20260904163059 | 34 | 64 | 6.4 | 17.7 | 0.00 | 0.00 | 0.00 | 59 | 1014.1 |
| 20260904162445 | 34 | 230 | 4.8 | 16.1 | 0.00 | 0.00 | 0.00 | 62 | 1014.0 |
| 20260904162429 | 34 | 283 | 4.8 | 17.7 | 0.00 | 0.00 | 0.00 | 60 | 1014.0 |
| 20260904161634 | 33 | 84 | 4.8 | 17.7 | 0.00 | 0.00 | 0.00 | 61 | 1014.2 |
| 20260904161442 | 33 | 279 | 4.8 | 17.7 | 0.00 | 0.00 | 0.00 | 61 | 1013.9 |
| 20260904161204 | 33 | 226 | 4.8 | 14.5 | 0.00 | 0.00 | 0.00 | 64 | 1014.0 |
| 20260904160434 | 33 | 205 | 6.4 | 17.7 | 0.00 | 0.00 | 0.00 | 62 | 1014.0 |
| 20260904160103 | 33 | 13 | 4.8 | 16.1 | 0.00 | 0.00 | 0.00 | 63 | 1014.2 |
| 20260904155931 | 33 | 221 | 6.4 | 17.7 | 0.00 | 0.00 | 0.00 | 64 | 1013.9 |
| 20260904155426 | 33 | 301 | 6.4 | 14.5 | 0.00 | 0.00 | 0.00 | 66 | 1014.0 |
| 20260904154923 | 32 | 229 | 6.4 | 14.5 | 0.00 | 0.00 | 0.00 | 67 | 1014.1 |
| 20260904154641 | 32 | 299 | 6.4 | 16.1 | 0.00 | 0.00 | 0.00 | 66 | 1014.2 |
| 20260904154603 | 32 | 134 | 6.4 | 16.1 | 0.00 | 0.00 | 0.00 | 66 | 1014.4 |
| 20260904153913 | 32 | 62 | 8.0 | 17.7 | 0.00 | 0.00 | 0.00 | 68 | 1014.2 |
| 20260904153408 | 32 | 1 | 8.0 | 17.7 | 0.00 | 0.00 | 0.00 | 68 | 1014.1 |
| 20260904153124 | 32 | 328 | 6.4 | 16.1 | 0.00 | 0.00 | 0.00 | 70 | 1014.0 |
| 20260904153103 | 32 | 46 | 3.2 | 14.5 | 0.00 | 0.00 | 0.00 | 68 | 1014.2 |
| 20260904152401 | 32 | 221 | 4.8 | 17.7 | 0.00 | 0.00 | 0.00 | 70 | 1014.1 |
| 20260904151901 | 31 | 202 | 9.7 | 22.5 | 0.00 | 0.00 | 0.00 | 71 | 1014.0 |
| 20260904151557 | 31 | 241 | 8.0 | 22.5 | 0.00 | 0.00 | 0.00 | 72 | 1014.2 |
| 20260904151401 | 31 | 186 | 9.7 | 22.5 | 0.00 | 0.00 | 0.00 | 72 | 1014.0 |
| 20260904150915 | 31 | 276 | 6.4 | 17.7 | 0.00 | 0.00 | 0.00 | 74 | 1014.0 |
| 20260904150629 | 31 | 278 | 8.0 | 17.7 | 0.00 | 0.00 | 0.00 | 74 | 1013.9 |
| 20260904150127 | 30 | 27 | 6.4 | 17.7 | 0.00 | 0.00 | 0.00 | 76 | 1013.9 |
| 20260904150104 | 30 | 77 | 4.8 | 20.9 | 0.00 | 0.00 | 0.00 | 75 | 1014.1 |
| 20260904145358 | 30 | 311 | 4.8 | 19.3 | 0.00 | 0.00 | 0.00 | 76 | 1013.9 |
| 20260904144850 | 30 | 260 | 6.4 | 19.3 | 0.00 | 0.00 | 0.00 | 77 | 1014.0 |
| 20260904144609 | 30 | 120 | 6.4 | 19.3 | 0.00 | 0.00 | 0.00 | 76 | 1014.1 |
| 20260904144344 | 30 | 274 | 4.8 | 20.9 | 0.00 | 0.00 | 0.00 | 77 | 1014.0 |
| 20260904143840 | 30 | 156 | 6.4 | 20.9 | 0.00 | 0.00 | 0.00 | 78 | 1013.9 |
| 20260904143335 | 30 | 18 | 4.8 | 17.7 | 0.00 | 0.00 | 0.00 | 78 | 1014.0 |
| 20260904143100 | 30 | 82 | 4.8 | 14.5 | 0.00 | 0.00 | 0.00 | 78 | 1014.1 |
| 20260904142830 | 30 | 23 | 4.8 | 14.5 | 0.00 | 0.00 | 0.00 | 78 | 1014.0 |
| 20260904142551 | 30 | 316 | 4.8 | 12.9 | 0.00 | 0.00 | 0.00 | 79 | 1013.9 |
| 20260904141830 | 30 | 216 | 6.4 | 12.9 | 0.00 | 0.00 | 0.00 | 79 | 1013.8 |
| 20260904141553 | 29 | 317 | 6.4 | 14.5 | 0.00 | 0.00 | 0.00 | 80 | 1014.0 |
| 20260904141331 | 30 | 92 | 6.4 | 12.9 | 0.00 | 0.00 | 0.00 | 80 | 1013.8 |
| 20260904140829 | 29 | 193 | 4.8 | 14.5 | 0.00 | 0.00 | 0.00 | 81 | 1013.8 |
| 20260904140811 | 29 | 285 | 4.8 | 14.5 | 0.00 | 0.00 | 0.00 | 81 | 1013.9 |
| 20260904140105 | 29 | 295 | 4.8 | 12.9 | 0.00 | 0.00 | 0.00 | 81 | 1014.1 |
| 20260904135828 | 29 | 315 | 3.2 | 12.9 | 0.00 | 0.00 | 0.00 | 81 | 1013.8 |
| 20260904135330 | 29 | 264 | 4.8 | 12.9 | 0.00 | 0.00 | 0.00 | 82 | 1013.8 |
| 20260904134828 | 28 | 191 | 4.8 | 14.5 | 0.00 | 0.00 | 0.00 | 83 | 1013.8 |
| 20260904134609 | 28 | 231 | 3.2 | 14.5 | 0.00 | 0.00 | 0.00 | 82 | 1014.0 |
| 20260904134329 | 28 | 108 | 3.2 | 14.5 | 0.00 | 0.00 | 0.00 | 83 | 1013.8 |
| 20260904133829 | 28 | 4 | 4.8 | 14.5 | 0.00 | 0.00 | 0.00 | 83 | 1013.7 |
| 20260904133328 | 28 | 162 | 4.8 | 12.9 | 0.00 | 0.00 | 0.00 | 83 | 1013.7 |
| 20260904133109 | 28 | 120 | 3.2 | 11.3 | 0.00 | 0.00 | 0.00 | 83 | 1013.8 |
| 20260904132829 | 28 | 263 | 3.2 | 11.3 | 0.00 | 0.00 | 0.00 | 83 | 1013.7 |
| 20260904132329 | 28 | 172 | 3.2 | 11.3 | 0.00 | 0.00 | 0.00 | 84 | 1013.8 |
| 20260904131829 | 28 | 113 | 1.6 | 8.0 | 0.00 | 0.00 | 0.00 | 84 | 1013.6 |
| 20260904131554 | 28 | 293 | 1.6 | 8.0 | 0.00 | 0.00 | 0.00 | 84 | 1013.8 |
| 20260904131329 | 28 | 233 | 3.2 | 8.0 | 0.00 | 0.00 | 0.00 | 84 | 1013.6 |
| 20260904130829 | 28 | 184 | 3.2 | 12.9 | 0.00 | 0.00 | 0.00 | 85 | 1013.5 |
| 20260904130329 | 28 | 285 | 6.4 | 12.9 | 0.00 | 0.00 | 0.00 | 85 | 1013.5 |
| 20260904130053 | 27 | 159 | 3.2 | 9.7 | 0.00 | 0.00 | 0.00 | 85 | 1013.7 |
| 20260904125828 | 28 | 211 | 1.6 | 9.7 | 0.00 | 0.00 | 0.00 | 86 | 1013.5 |
| 20260904125331 | 28 | 148 | 3.2 | 6.4 | 0.00 | 0.00 | 0.00 | 86 | 1013.4 |
| 20260904124829 | 27 | 240 | 3.2 | 6.4 | 0.00 | 0.00 | 0.00 | 86 | 1013.3 |
| 20260904124635 | 27 | 224 | 1.6 | 6.4 | 0.00 | 0.00 | 0.00 | 86 | 1013.7 |
| 20260904124329 | 27 | 326 | 3.2 | 6.4 | 0.00 | 0.00 | 0.00 | 87 | 1013.4 |
| 20260904123828 | 27 | 138 | 3.2 | 6.4 | 0.00 | 0.00 | 0.00 | 87 | 1013.5 |
| 20260904123328 | 27 | 188 | 3.2 | 6.4 | 0.00 | 0.00 | 0.00 | 87 | 1013.4 |
| 20260904123056 | 27 | 266 | 1.6 | 4.8 | 0.00 | 0.00 | 0.00 | 86 | 1013.5 |
| 20260904122829 | 27 | 307 | 1.6 | 4.8 | 0.00 | 0.00 | 0.00 | 87 | 1013.2 |
| 20260904122330 | 27 | 219 | 3.2 | 6.4 | 0.00 | 0.00 | 0.00 | 87 | 1013.0 |
| 20260904121830 | 27 | 207 | 1.6 | 6.4 | 0.00 | 0.00 | 0.00 | 87 | 1012.9 |
| 20260904121600 | 27 | 250 | 1.6 | 8.0 | 0.00 | 0.00 | 0.00 | 86 | 1013.0 |
| 20260904121331 | 27 | 167 | 3.2 | 9.7 | 0.00 | 0.00 | 0.00 | 87 | 1012.9 |
| 20260904120830 | 27 | 275 | 1.6 | 9.7 | 0.00 | 0.00 | 0.00 | 87 | 1012.9 |
| 20260904120331 | 27 | 245 | 3.2 | 4.8 | 0.00 | 0.00 | 0.00 | 87 | 1012.7 |
| 20260904120118 | 27 | 98 | 1.6 | 8.0 | 0.00 | 0.00 | 0.00 | 86 | 1012.7 |
| 20260904120111 | 27 | 243 | 1.6 | 8.0 | 0.00 | 0.00 | 0.00 | 86 | 1013.0 |
| 20260904115553 | 27 | 314 | 1.6 | 8.0 | 0.00 | 0.00 | 0.00 | 86 | 1012.6 |
| 20260904114830 | 27 | 28 | 4.8 | 14.5 | 0.00 | 0.00 | 0.00 | 86 | 1012.7 |
| 20260904114558 | 27 | 258 | 1.6 | 14.5 | 0.00 | 0.00 | 0.00 | 86 | 1012.8 |
| 20260904114330 | 27 | 333 | 1.6 | 14.5 | 0.00 | 0.00 | 0.00 | 86 | 1012.5 |
| 20260904113830 | 27 | 346 | 1.6 | 4.8 | 0.00 | 0.00 | 0.00 | 86 | 1012.6 |
| 20260904113330 | 27 | 303 | 1.6 | 4.8 | 0.00 | 0.00 | 0.00 | 86 | 1012.5 |
| 20260904113056 | 27 | 56 | 0.0 | 3.2 | 0.00 | 0.00 | 0.00 | 85 | 1012.8 |
| 20260904112829 | 27 | 11 | 1.6 | 4.8 | 0.00 | 0.00 | 0.00 | 85 | 1012.6 |
| 20260904112329 | 27 | 270 | 0.0 | 6.4 | 0.00 | 0.00 | 0.00 | 85 | 1012.6 |
| 20260904111829 | 27 | 247 | 1.6 | 6.4 | 0.00 | 0.00 | 0.00 | 85 | 1012.5 |
| 20260904111603 | 27 | 323 | 1.6 | 8.0 | 0.00 | 0.00 | 0.00 | 85 | 1012.8 |
| 20260904111329 | 27 | 334 | 1.6 | 9.7 | 0.00 | 0.00 | 0.00 | 85 | 1012.6 |
| 20260904110829 | 27 | 206 | 3.2 | 9.7 | 0.00 | 0.00 | 0.00 | 85 | 1012.6 |
| 20260904110552 | 27 | 148 | 3.2 | 9.7 | 0.00 | 0.00 | 0.00 | 85 | 1012.6 |
| 20260904110104 | 27 | 149 | 1.6 | 11.3 | 0.00 | 0.00 | 0.00 | 84 | 1012.8 |
| 20260904105829 | 28 | 240 | 1.6 | 9.7 | 0.00 | 0.00 | 0.00 | 85 | 1012.6 |
| 20260904105328 | 28 | 132 | 3.2 | 11.3 | 0.00 | 0.00 | 0.00 | 84 | 1012.6 |
| 20260904105320 | 28 | 64 | 3.2 | 11.3 | 0.00 | 0.00 | 0.00 | 84 | 1012.6 |
| 20260904104556 | 27 | 203 | 1.6 | 6.4 | 0.00 | 0.00 | 0.00 | 84 | 1012.9 |
| 20260904104329 | 28 | 128 | 3.2 | 8.0 | 0.00 | 0.00 | 0.00 | 84 | 1012.8 |
| 20260904103828 | 28 | 226 | 1.6 | 16.1 | 0.00 | 0.00 | 0.00 | 84 | 1012.8 |
| 20260904103329 | 28 | 253 | 3.2 | 8.0 | 0.00 | 0.00 | 0.00 | 84 | 1012.5 |
| 20260904103131 | 27 | 323 | 3.2 | 11.3 | 0.00 | 0.00 | 0.00 | 83 | 1012.7 |
| 20260904103055 | 27 | 323 | 3.2 | 11.3 | 0.00 | 0.00 | 0.00 | 83 | 1012.7 |
| 20260904102829 | 28 | 122 | 1.6 | 11.3 | 0.00 | 0.00 | 0.00 | 84 | 1012.5 |
| 20260904102328 | 28 | 166 | 3.2 | 12.9 | 0.00 | 0.00 | 0.00 | 84 | 1012.4 |
| 20260904101830 | 28 | 264 | 4.8 | 12.9 | 0.00 | 0.00 | 0.00 | 83 | 1012.4 |
| 20260904101605 | 27 | 82 | 3.2 | 14.5 | 0.00 | 0.00 | 0.00 | 83 | 1012.6 |
| 20260904101330 | 28 | 87 | 3.2 | 12.9 | 0.00 | 0.00 | 0.00 | 83 | 1012.4 |
| 20260904100830 | 28 | 274 | 4.8 | 12.9 | 0.00 | 0.00 | 0.00 | 83 | 1012.6 |
| 20260904100330 | 28 | 321 | 3.2 | 11.3 | 0.00 | 0.00 | 0.00 | 83 | 1012.5 |
| 20260904095830 | 28 | 307 | 4.8 | 11.3 | 0.00 | 0.00 | 0.00 | 83 | 1012.5 |
| 20260904095329 | 28 | 246 | 3.2 | 11.3 | 0.00 | 0.00 | 0.00 | 83 | 1012.5 |
| 20260904094829 | 28 | 236 | 3.2 | 11.3 | 0.00 | 0.00 | 0.00 | 83 | 1012.6 |
| 20260904094556 | 28 | 295 | 1.6 | 9.7 | 0.00 | 0.00 | 0.00 | 83 | 1012.8 |
| 20260904094552 | 28 | 74 | 3.2 | 9.7 | 0.00 | 0.00 | 0.00 | 83 | 1012.6 |